| time (UTC) | temp F | wind direction | speed MPH | gust MPH | rain 1hr in | rain 24hr in | rain mn in | humidity % | barometer mb |
| 20260906052516 | 59 | 23 | 2.0 | 3.0 | 0.00 | 0.00 | 0.00 | 78 | 1019.2 |
| 20260906051516 | 59 | 23 | 2.0 | 3.0 | 0.00 | 0.00 | 0.00 | 78 | 1018.9 |
| 20260906050516 | 59 | 23 | 3.0 | 5.0 | 0.00 | 0.00 | 0.00 | 79 | 1019.1 |
| 20260906045516 | 60 | 23 | 2.0 | 3.0 | 0.00 | 0.00 | 0.00 | 78 | 1019.2 |
| 20260906044536 | 60 | 23 | 2.0 | 3.0 | 0.00 | 0.00 | 0.00 | 77 | 1019.1 |
| 20260906043516 | 61 | 23 | 2.0 | 4.0 | 0.00 | 0.00 | 0.00 | 77 | 1019.0 |
| 20260906042516 | 61 | 23 | 3.0 | 4.0 | 0.00 | 0.00 | 0.00 | 76 | 1018.7 |
| 20260906041536 | 61 | 23 | 2.0 | 4.0 | 0.00 | 0.00 | 0.00 | 77 | 1018.5 |
| 20260906040516 | 60 | 23 | 2.0 | 4.0 | 0.00 | 0.00 | 0.00 | 78 | 1018.5 |
| 20260906035516 | 60 | 23 | 2.0 | 4.0 | 0.00 | 0.00 | 0.00 | 79 | 1018.6 |
| 20260906034516 | 60 | 23 | 2.0 | 4.0 | 0.00 | 0.00 | 0.00 | 79 | 1018.6 |
| 20260906033516 | 59 | 23 | 3.0 | 5.0 | 0.00 | 0.00 | 0.00 | 80 | 1018.5 |
| 20260906032516 | 59 | 23 | 2.0 | 3.0 | 0.00 | 0.00 | 0.00 | 80 | 1018.6 |
| 20260906031516 | 59 | 45 | 2.0 | 3.0 | 0.00 | 0.00 | 0.00 | 80 | 1018.5 |
| 20260906030516 | 59 | 45 | 2.0 | 3.0 | 0.00 | 0.00 | 0.00 | 80 | 1018.5 |
| 20260906025516 | 59 | 23 | 2.0 | 4.0 | 0.00 | 0.00 | 0.00 | 80 | 1018.4 |
| 20260906024516 | 59 | 23 | 2.0 | 3.0 | 0.00 | 0.00 | 0.00 | 79 | 1018.5 |
| 20260906023515 | 60 | 23 | 2.0 | 3.0 | 0.00 | 0.00 | 0.00 | 79 | 1018.4 |
| 20260906022516 | 60 | 45 | 2.0 | 3.0 | 0.00 | 0.00 | 0.00 | 79 | 1018.5 |
| 20260906021516 | 60 | 45 | 2.0 | 4.0 | 0.00 | 0.00 | 0.00 | 79 | 1018.5 |
| 20260906020516 | 60 | 45 | 2.0 | 4.0 | 0.00 | 0.00 | 0.00 | 79 | 1018.3 |
| 20260906015515 | 60 | 23 | 2.0 | 3.0 | 0.00 | 0.00 | 0.00 | 79 | 1018.1 |
| 20260906014515 | 60 | 23 | 2.0 | 3.0 | 0.00 | 0.00 | 0.00 | 79 | 1018.1 |
| 20260906013515 | 60 | 45 | 2.0 | 3.0 | 0.00 | 0.00 | 0.00 | 79 | 1017.9 |
| 20260906012555 | 61 | 0 | 2.0 | 3.0 | 0.00 | 0.00 | 0.00 | 79 | 1017.9 |
| 20260906011515 | 61 | 0 | 2.0 | 3.0 | 0.00 | 0.00 | 0.00 | 79 | 1017.8 |
| 20260906010516 | 61 | 0 | 2.0 | 3.0 | 0.00 | 0.00 | 0.00 | 79 | 1017.7 |
| 20260906005515 | 61 | 0 | 2.0 | 3.0 | 0.00 | 0.00 | 0.00 | 79 | 1017.6 |
| 20260906004516 | 61 | 0 | 2.0 | 3.0 | 0.00 | 0.00 | 0.00 | 79 | 1017.7 |
| 20260906003516 | 62 | 0 | 1.0 | 2.0 | 0.00 | 0.00 | 0.00 | 78 | 1017.6 |
| 20260906002515 | 63 | 0.0 | 0.0 | 0.00 | 0.00 | 0.00 | 78 | 1017.6 | |
| 20260906001515 | 64 | 0.0 | 0.0 | 0.00 | 0.00 | 0.00 | 77 | 1017.6 | |
| 20260906000515 | 65 | 0.0 | 2.0 | 0.00 | 0.00 | 0.00 | 76 | 1017.8 | |
| 20260905235515 | 66 | 0.0 | 1.0 | 0.00 | 0.00 | 0.00 | 74 | 1017.9 | |
| 20260905234517 | 66 | 0.0 | 0.0 | 0.00 | 0.00 | 0.00 | 73 | 1017.8 | |
| 20260905233517 | 66 | 0 | 1.0 | 2.0 | 0.00 | 0.00 | 0.00 | 71 | 1017.9 |
| 20260905232517 | 66 | 0.0 | 3.0 | 0.00 | 0.00 | 0.00 | 72 | 1017.7 | |
| 20260905231517 | 66 | 0.0 | 2.0 | 0.00 | 0.00 | 0.00 | 72 | 1017.9 | |
| 20260905230517 | 66 | 0 | 1.0 | 3.0 | 0.00 | 0.00 | 0.00 | 71 | 1018.1 |
| 20260905225515 | 66 | 0 | 2.0 | 4.0 | 0.00 | 0.00 | 0.00 | 72 | 1018.0 |
| 20260905224518 | 66 | 0 | 1.0 | 3.0 | 0.00 | 0.00 | 0.00 | 72 | 1018.1 |
| 20260905223537 | 66 | 0 | 2.0 | 5.0 | 0.00 | 0.00 | 0.00 | 72 | 1018.0 |
| 20260905222517 | 66 | 0 | 2.0 | 5.0 | 0.00 | 0.00 | 0.00 | 71 | 1018.1 |
| 20260905221517 | 66 | 0 | 2.0 | 8.0 | 0.00 | 0.00 | 0.00 | 71 | 1018.0 |
| 20260905220517 | 67 | 0 | 2.0 | 6.0 | 0.00 | 0.00 | 0.00 | 71 | 1018.0 |
| 20260905215517 | 67 | 0 | 2.0 | 8.0 | 0.00 | 0.00 | 0.00 | 71 | 1018.2 |
| 20260905214517 | 67 | 0 | 3.0 | 8.0 | 0.00 | 0.00 | 0.00 | 70 | 1018.3 |
| 20260905213517 | 67 | 0 | 3.0 | 6.0 | 0.00 | 0.00 | 0.00 | 71 | 1018.5 |
| 20260905212537 | 67 | 0 | 2.0 | 6.0 | 0.00 | 0.00 | 0.00 | 71 | 1018.5 |
| 20260905211537 | 67 | 0 | 4.0 | 6.0 | 0.00 | 0.00 | 0.00 | 70 | 1018.6 |
| 20260905210517 | 68 | 0 | 3.0 | 6.0 | 0.00 | 0.00 | 0.00 | 70 | 1018.6 |
| 20260905205537 | 68 | 0 | 3.0 | 6.0 | 0.00 | 0.00 | 0.00 | 70 | 1018.6 |
| 20260905204517 | 68 | 0 | 4.0 | 9.0 | 0.00 | 0.00 | 0.00 | 69 | 1018.6 |
| 20260905203517 | 68 | 0 | 5.0 | 9.0 | 0.00 | 0.00 | 0.00 | 69 | 1018.5 |
| 20260905202517 | 68 | 0 | 4.0 | 8.0 | 0.00 | 0.00 | 0.00 | 69 | 1018.5 |
| 20260905201517 | 68 | 0 | 5.0 | 10.0 | 0.00 | 0.00 | 0.00 | 68 | 1018.6 |
| 20260905200517 | 69 | 0 | 3.0 | 6.0 | 0.00 | 0.00 | 0.00 | 68 | 1018.8 |
| 20260905195517 | 69 | 0 | 2.0 | 6.0 | 0.00 | 0.00 | 0.00 | 68 | 1018.7 |
| 20260905194517 | 68 | 0 | 4.0 | 8.0 | 0.00 | 0.00 | 0.00 | 69 | 1018.6 |
| 20260905193517 | 68 | 0 | 3.0 | 8.0 | 0.00 | 0.00 | 0.00 | 68 | 1018.9 |
| 20260905192517 | 68 | 0 | 4.0 | 8.0 | 0.00 | 0.00 | 0.00 | 69 | 1019.3 |
| 20260905191517 | 68 | 0 | 4.0 | 10.0 | 0.00 | 0.00 | 0.00 | 68 | 1019.4 |
| 20260905190517 | 68 | 0 | 3.0 | 8.0 | 0.00 | 0.00 | 0.00 | 68 | 1019.6 |
| 20260905185517 | 68 | 0 | 4.0 | 9.0 | 0.00 | 0.00 | 0.00 | 68 | 1019.7 |
| 20260905184517 | 68 | 0 | 2.0 | 6.0 | 0.00 | 0.00 | 0.00 | 70 | 1019.8 |
| 20260905183517 | 68 | 0 | 3.0 | 9.0 | 0.00 | 0.00 | 0.00 | 69 | 1019.5 |
| 20260905182517 | 68 | 0 | 3.0 | 8.0 | 0.00 | 0.00 | 0.00 | 70 | 1019.5 |
| 20260905181517 | 67 | 0 | 4.0 | 9.0 | 0.00 | 0.00 | 0.00 | 70 | 1019.4 |
| 20260905180517 | 67 | 0 | 3.0 | 6.0 | 0.00 | 0.00 | 0.00 | 72 | 1019.3 |
| 20260905175517 | 67 | 0 | 4.0 | 9.0 | 0.00 | 0.00 | 0.00 | 70 | 1019.2 |
| 20260905174517 | 68 | 0 | 3.0 | 9.0 | 0.00 | 0.00 | 0.00 | 70 | 1019.7 |
| 20260905173517 | 67 | 0 | 4.0 | 9.0 | 0.00 | 0.00 | 0.00 | 71 | 1019.4 |
| 20260905172517 | 67 | 0 | 3.0 | 8.0 | 0.00 | 0.00 | 0.00 | 71 | 1019.3 |
| 20260905171517 | 67 | 0 | 3.0 | 9.0 | 0.00 | 0.00 | 0.00 | 69 | 1019.6 |
| 20260905170517 | 67 | 0 | 4.0 | 10.0 | 0.00 | 0.00 | 0.00 | 69 | 1019.6 |
| 20260905165517 | 67 | 0 | 3.0 | 6.0 | 0.00 | 0.00 | 0.00 | 69 | 1019.6 |
| 20260905164517 | 66 | 0 | 2.0 | 9.0 | 0.00 | 0.00 | 0.00 | 71 | 1019.7 |
| 20260905163517 | 66 | 0 | 2.0 | 8.0 | 0.00 | 0.00 | 0.00 | 70 | 1019.5 |
| 20260905162516 | 66 | 0 | 4.0 | 11.0 | 0.00 | 0.00 | 0.00 | 69 | 1019.5 |
| 20260905161516 | 67 | 0 | 4.0 | 8.0 | 0.00 | 0.00 | 0.00 | 68 | 1019.5 |
| 20260905160516 | 66 | 0 | 2.0 | 6.0 | 0.00 | 0.00 | 0.00 | 69 | 1019.6 |
| 20260905155516 | 66 | 0 | 2.0 | 6.0 | 0.00 | 0.00 | 0.00 | 70 | 1019.7 |
| 20260905154537 | 65 | 0 | 3.0 | 9.0 | 0.00 | 0.00 | 0.00 | 70 | 1019.4 |
| 20260905153516 | 65 | 0 | 2.0 | 8.0 | 0.00 | 0.00 | 0.00 | 70 | 1019.5 |
| 20260905152516 | 65 | 0 | 1.0 | 5.0 | 0.00 | 0.00 | 0.00 | 70 | 1019.4 |
| 20260905151516 | 65 | 0 | 2.0 | 8.0 | 0.00 | 0.00 | 0.00 | 70 | 1019.3 |
| 20260905150537 | 65 | 0 | 1.0 | 5.0 | 0.00 | 0.00 | 0.00 | 71 | 1019.4 |
| 20260905145516 | 65 | 0 | 2.0 | 5.0 | 0.00 | 0.00 | 0.00 | 71 | 1019.2 |
| 20260905144516 | 64 | 0 | 1.0 | 4.0 | 0.00 | 0.00 | 0.00 | 71 | 1019.4 |
| 20260905143516 | 64 | 0 | 2.0 | 5.0 | 0.00 | 0.00 | 0.00 | 71 | 1019.5 |
| 20260905142557 | 64 | 0 | 2.0 | 6.0 | 0.00 | 0.00 | 0.00 | 70 | 1019.4 |
| 20260905141516 | 64 | 0 | 1.0 | 5.0 | 0.00 | 0.00 | 0.00 | 71 | 1019.4 |
| 20260905140516 | 64 | 0 | 1.0 | 5.0 | 0.00 | 0.00 | 0.00 | 71 | 1019.3 |
| 20260905135516 | 64 | 0 | 2.0 | 8.0 | 0.00 | 0.00 | 0.00 | 71 | 1019.3 |
| 20260905134516 | 64 | 0 | 2.0 | 6.0 | 0.00 | 0.00 | 0.00 | 71 | 1019.2 |
| 20260905133516 | 64 | 0 | 2.0 | 5.0 | 0.00 | 0.00 | 0.00 | 71 | 1018.8 |
| 20260905132536 | 64 | 0 | 2.0 | 5.0 | 0.00 | 0.00 | 0.00 | 72 | 1018.8 |
| 20260905131516 | 64 | 0 | 2.0 | 6.0 | 0.00 | 0.00 | 0.00 | 72 | 1018.9 |
| 20260905130516 | 64 | 0 | 3.0 | 9.0 | 0.00 | 0.00 | 0.00 | 72 | 1018.8 |
| 20260905125516 | 64 | 0 | 2.0 | 8.0 | 0.00 | 0.00 | 0.00 | 72 | 1018.6 |
| 20260905124516 | 64 | 0 | 2.0 | 8.0 | 0.00 | 0.00 | 0.00 | 72 | 1018.2 |
| 20260905123516 | 63 | 0 | 3.0 | 9.0 | 0.00 | 0.00 | 0.00 | 72 | 1018.0 |
| 20260905122516 | 63 | 0 | 3.0 | 5.0 | 0.00 | 0.00 | 0.00 | 73 | 1018.0 |
| 20260905121516 | 63 | 0 | 2.0 | 10.0 | 0.00 | 0.00 | 0.00 | 73 | 1017.9 |
| 20260905120516 | 63 | 0 | 2.0 | 5.0 | 0.00 | 0.00 | 0.00 | 73 | 1017.8 |
| 20260905115516 | 63 | 0 | 2.0 | 6.0 | 0.00 | 0.00 | 0.00 | 73 | 1017.5 |
| 20260905114516 | 63 | 0 | 2.0 | 6.0 | 0.00 | 0.00 | 0.00 | 73 | 1017.3 |
| 20260905113516 | 63 | 0 | 2.0 | 6.0 | 0.00 | 0.00 | 0.00 | 73 | 1017.2 |
| 20260905112516 | 63 | 0 | 3.0 | 6.0 | 0.00 | 0.00 | 0.00 | 73 | 1017.2 |
| 20260905111516 | 63 | 0 | 2.0 | 5.0 | 0.00 | 0.00 | 0.00 | 73 | 1017.3 |
| 20260905110516 | 63 | 0 | 2.0 | 5.0 | 0.00 | 0.00 | 0.00 | 73 | 1017.3 |
| 20260905105536 | 63 | 0 | 1.0 | 5.0 | 0.00 | 0.00 | 0.00 | 73 | 1017.2 |
| 20260905104516 | 63 | 0 | 2.0 | 5.0 | 0.00 | 0.00 | 0.00 | 73 | 1017.3 |
| 20260905103516 | 63 | 0 | 2.0 | 5.0 | 0.00 | 0.00 | 0.00 | 74 | 1017.2 |
| 20260905102516 | 63 | 0 | 2.0 | 9.0 | 0.00 | 0.00 | 0.00 | 74 | 1017.2 |
| 20260905101516 | 64 | 0 | 2.0 | 5.0 | 0.00 | 0.00 | 0.00 | 74 | 1017.2 |
| 20260905100516 | 64 | 0 | 1.0 | 4.0 | 0.00 | 0.00 | 0.00 | 74 | 1017.2 |
| 20260905095536 | 64 | 0 | 1.0 | 5.0 | 0.00 | 0.00 | 0.00 | 74 | 1017.3 |
| 20260905094516 | 64 | 0 | 2.0 | 6.0 | 0.00 | 0.00 | 0.00 | 74 | 1017.4 |
| 20260905093536 | 64 | 0.0 | 3.0 | 0.00 | 0.00 | 0.00 | 74 | 1017.5 | |
| 20260905092516 | 64 | 0 | 1.0 | 5.0 | 0.00 | 0.00 | 0.00 | 74 | 1017.5 |
| 20260905091516 | 64 | 0 | 1.0 | 5.0 | 0.00 | 0.01 | 0.00 | 74 | 1017.5 |
| 20260905090516 | 63 | 0 | 1.0 | 4.0 | 0.00 | 0.01 | 0.00 | 74 | 1017.5 |
| 20260905085516 | 63 | 0 | 1.0 | 3.0 | 0.00 | 0.01 | 0.00 | 75 | 1017.5 |
| 20260905084516 | 63 | 0 | 1.0 | 4.0 | 0.00 | 0.01 | 0.00 | 75 | 1017.6 |
| 20260905083536 | 63 | 0 | 1.0 | 3.0 | 0.00 | 0.01 | 0.00 | 75 | 1017.6 |
| 20260905082516 | 63 | 0 | 1.0 | 5.0 | 0.00 | 0.02 | 0.00 | 75 | 1017.5 |
| 20260905081516 | 63 | 0 | 1.0 | 3.0 | 0.00 | 0.02 | 0.00 | 75 | 1017.5 |
| 20260905080516 | 63 | 0.0 | 2.0 | 0.00 | 0.04 | 0.00 | 75 | 1017.4 | |
| 20260905075515 | 63 | 0 | 1.0 | 5.0 | 0.00 | 0.14 | 0.00 | 75 | 1017.4 |
| 20260905074516 | 63 | 0 | 1.0 | 4.0 | 0.00 | 0.15 | 0.00 | 75 | 1017.3 |
| 20260905073515 | 63 | 0.0 | 0.0 | 0.00 | 0.17 | 0.00 | 75 | 1017.2 | |
| 20260905072535 | 64 | 0.0 | 3.0 | 0.00 | 0.19 | 0.00 | 75 | 1017.0 | |
| 20260905071516 | 63 | 0 | 2.0 | 6.0 | 0.00 | 0.20 | 0.00 | 75 | 1017.0 |
| 20260905070516 | 64 | 0 | 2.0 | 8.0 | 0.00 | 0.21 | 0.00 | 75 | 1016.9 |
| 20260905065516 | 64 | 0 | 1.0 | 5.0 | 0.00 | 0.21 | 0.00 | 75 | 1016.8 |
| 20260905064515 | 64 | 0 | 1.0 | 2.0 | 0.00 | 0.21 | 0.00 | 75 | 1016.9 |
| 20260905063516 | 64 | 0 | 1.0 | 3.0 | 0.00 | 0.21 | 0.00 | 75 | 1016.9 |
| 20260905062515 | 64 | 0.0 | 3.0 | 0.00 | 0.21 | 0.00 | 75 | 1016.8 | |
| 20260905061535 | 64 | 0 | 2.0 | 4.0 | 0.00 | 0.21 | 0.00 | 74 | 1016.8 |
| 20260905060515 | 64 | 0 | 1.0 | 5.0 | 0.00 | 0.21 | 0.00 | 74 | 1016.9 |
| 20260905055515 | 64 | 0 | 1.0 | 4.0 | 0.00 | 0.21 | 0.00 | 74 | 1017.0 |
| 20260905054535 | 64 | 0 | 2.0 | 5.0 | 0.00 | 0.21 | 0.00 | 74 | 1016.9 |
| 20260905053515 | 64 | 0 | 1.0 | 5.0 | 0.00 | 0.21 | 0.00 | 74 | 1017.0 |